• Processing (Info)

  • MPEC 2007-C61 : 2007 CS26

    The following Minor Planet Electronic Circular may be linked-to from your own Web pages, but must not otherwise be redistributed electronically.

    A form allowing access to any MPEC is at the bottom of this page.


    Read MPEC 2007-C60 Read MPEC 2007-C62


    M.P.E.C. 2007-C61                                Issued 2007 Feb. 14, 00:24 UT
    
         The Minor Planet Electronic Circulars contain information on unusual
             minor planets and routine data on comets.  They are published
       on behalf of Commission 20 of the International Astronomical Union by the
              Minor Planet Center, Smithsonian Astrophysical Observatory,
                              Cambridge, MA 02138, U.S.A.
    
                 Prepared using the Tamkin Foundation Computer Network
    
                                  MPC@CFA.HARVARD.EDU
              URL http://cfa-www.harvard.edu/iau/mpc.html  ISSN 1523-6714
    
                                       2007 CS26
    
    Observations:
         K07C26S* C2007 02 13.31602 09 14 42.28 +15 33 35.3          15.5   EC061704
         K07C26S  C2007 02 13.32712 09 14 51.79 +15 38 15.6          15.7   EC061704
         K07C26S  C2007 02 13.33832 09 15 01.40 +15 42 58.1          15.5   EC061704
         K07C26S  C2007 02 13.34942 09 15 10.97 +15 47 38.5          15.3   EC061704
         K07C26S  C2007 02 14.00343 09 25 51.10 +20 32 47.3          15.9 V EC061595
         K07C26S  C2007 02 14.00428 09 25 51.96 +20 33 08.8          15.6 V EC061595
         K07C26S  C2007 02 14.00513 09 25 52.83 +20 33 31.6          15.7 V EC061595
    
    Observer details:
    595 Farra d'Isonzo.  Observers L. Bittesini, G. Lombardi, E. Pettarin,
        F. Piani.  Measurers G. Lombardi, E. Pettarin.  0.40-m f/4.5 reflector
        + CCD.
    704 Lincoln Laboratory ETS, New Mexico.  Observers M. Bezpalko, D. Torres,
        R. Kracke, G. Spitz, J. Kistler.  Measurers J. Stuart, S. Scruggs.  1.0-m
        f/2.15 reflector + CCD.
    
    Orbital elements:
    2007 CS26                                                Earth MOID = 0.0502 AU
    Epoch 2007 Feb. 9.0 TT = JDT 2454140.5                  MPC
    M 352.46672              (2000.0)            P               Q
    n   0.30772056     Peri.   23.68353     -0.95985583     -0.18043536
    a   2.1728598      Node   143.75894     +0.16174171     -0.98156885
    e   0.5347319      Incl.   21.30074     +0.22916459     -0.06297353
    P   3.20           H   21.1           G   0.15
    From 7 observations 2007 Feb. 13-14.  E-assumed.
    
    Ephemeris:
    2007 CS26                a,e,i = 2.17, 0.53, 21                  q = 1.0110
    Date    TT    R. A. (2000) Decl.     Delta      r     Elong.  Phase     V
    2007 02 09    08 29.05   -06 57.3    0.0766   1.056   153.6    24.5    16.8
    2007 02 10    08 36.87   -03 02.5    0.0705   1.052   157.6    20.9    16.5
    2007 02 11    08 46.08   +01 35.9    0.0649   1.049   162.2    16.7    16.2
    2007 02 12    08 57.00   +07 03.6    0.0600   1.046   167.3    12.0    15.8
    2007 02 13    09 10.06   +13 23.5    0.0559   1.043   171.6     7.9    15.5
    2007 02 14    09 25.82   +20 32.1    0.0528   1.040   170.9     8.6    15.4
    2007 02 15    09 44.94   +28 15.6    0.0510   1.037   164.6    14.7    15.5
    2007 02 16    10 08.20   +36 08.6    0.0504   1.034   156.3    22.6    15.8
    2007 02 17    10 36.40   +43 38.0    0.0512   1.032   147.6    30.8    16.0
    2007 02 18    11 10.05   +50 11.6    0.0533   1.029   139.3    38.7    16.3
    2007 02 19    11 48.94   +55 26.6    0.0565   1.027   131.8    45.8    16.7
    2007 02 20    12 31.64   +59 14.0    0.0606   1.025   125.3    52.0    17.0
    2007 02 21    13 15.45   +61 38.2    0.0655   1.023   119.7    57.1    17.3
    2007 02 22    13 57.26   +62 53.5    0.0710   1.021   114.9    61.4    17.6
    2007 02 23    14 34.69   +63 18.1    0.0770   1.019   111.0    65.0    17.9
    2007 02 24    15 06.73   +63 09.3    0.0833   1.018   107.7    67.9    18.1
    2007 02 25    15 33.44   +62 40.4    0.0899   1.017   104.9    70.2    18.4
    2007 02 26    15 55.46   +62 00.7    0.0966   1.015   102.5    72.2    18.6
    2007 02 27    16 13.61   +61 15.9    0.104    1.014   100.5    73.7    18.8
    2007 02 28    16 28.62   +60 29.7    0.111    1.013    98.8    75.0    19.0
    2007 03 01    16 41.15   +59 44.1    0.118    1.013    97.4    76.0    19.1
    
    2007 03 11    17 40.86   +54 08.3    0.190    1.013    90.6    78.6    20.3
    2007 03 21    17 59.85   +51 12.5    0.260    1.029    90.0    75.4    20.9
    2007 03 31    18 06.67   +49 24.2    0.323    1.059    91.8    70.4    21.2
    2007 04 10    18 06.83   +48 02.3    0.379    1.102    95.0    64.9    21.5
    
    Timothy B. Spahr             (C) Copyright 2007 MPC           M.P.E.C. 2007-C61
    

    Read MPEC 2007-C60 Read MPEC 2007-C62


    MPEC number:

    Enter an MPEC number in one of the following forms:

    • 1997-B01 (the full form)
    • J97B01 (the packed version of the full form)
    • B01 (the abbreviated form)